When you browse on this site, cookies collect data to enhance your experience and personalize the content and advertising you see.
Visit our Privacy Policy to learn more. By continuing to use the site, you agree to this use of cookies and data.
  • In Sweden
  • List of Countries
  • For 7 days
  • Water Temperature
  • Satellite Maps
  • Weather Map
  • Weather Widgets
  • user-avatar
    Login

    Hourly Weather Lesisko

    Today, 15 December, Saturday

    Time Temperature Precipitation Wind Pressure Humidity
    00:00 -2°C° 0 mm 2 mps 753 mmHg 93%
    01:00 -2°C° 0 mm 2 mps 753 mmHg 94%
    02:00 -2°C° 0 mm 2 mps 753 mmHg 94%
    03:00 -2°C° 0 mm 2 mps 753 mmHg 93%
    04:00 -3°C° 0 mm 2 mps 753 mmHg 93%
    05:00 -3°C° 0 mm 2 mps 753 mmHg 94%
    06:00 -3°C° 0 mm 2 mps 753 mmHg 94%
    07:00 -3°C° 0 mm 2 mps 753 mmHg 94%
    08:00 -4°C° 0 mm 3 mps 753 mmHg 91%
    09:00 -2°C° 0 mm 3 mps 754 mmHg 88%
    10:00 -2°C° 0 mm 3 mps 754 mmHg 85%
    11:00 -1°C° 0 mm 3 mps 754 mmHg 82%
    12:00 -2°C° 0 mm 4 mps 753 mmHg 80%
    13:00 -2°C° 0 mm 4 mps 753 mmHg 77%
    14:00 -2°C° 0 mm 4 mps 753 mmHg 79%
    15:00 -2°C° 0 mm 4 mps 753 mmHg 81%
    16:00 -3°C° 0 mm 4 mps 753 mmHg 82%
    17:00 -3°C° 0 mm 4 mps 753 mmHg 82%
    18:00 -3°C° 0 mm 4 mps 752 mmHg 82%
    19:00 -3°C° 0 mm 4 mps 752 mmHg 82%
    20:00 -4°C° 0 mm 5 mps 752 mmHg 82%
    21:00 -5°C° 0 mm 5 mps 752 mmHg 82%
    22:00 -5°C° 0 mm 5 mps 751 mmHg 82%
    23:00 -5°C° 0.2 mm 5 mps 751 mmHg 83%

    Tomorrow, 16 December, Sunday

    Time Temperature Precipitation Wind Pressure Humidity
    00:00 -5°C° 0.2 mm 5 mps 751 mmHg 84%
    01:00 -5°C° 0.2 mm 5 mps 750 mmHg 86%
    02:00 -5°C° 0.3 mm 5 mps 750 mmHg 86%
    03:00 -5°C° 0.3 mm 5 mps 749 mmHg 87%
    04:00 -5°C° 0.3 mm 5 mps 749 mmHg 88%
    05:00 -5°C° 0.2 mm 5 mps 748 mmHg 88%
    06:00 -5°C° 0.2 mm 5 mps 748 mmHg 88%
    07:00 -4°C° 0.2 mm 4 mps 748 mmHg 89%
    08:00 -4°C° 0.2 mm 4 mps 748 mmHg 88%
    09:00 -4°C° 0.2 mm 4 mps 747 mmHg 88%
    10:00 -3°C° 0.2 mm 4 mps 747 mmHg 88%
    11:00 -3°C° 0.2 mm 4 mps 747 mmHg 88%
    12:00 -2°C° 0.2 mm 3 mps 747 mmHg 88%
    13:00 -2°C° 0.2 mm 3 mps 746 mmHg 88%
    14:00 -2°C° 0 mm 3 mps 746 mmHg 89%
    15:00 -2°C° 0 mm 2 mps 746 mmHg 89%
    16:00 -2°C° 0 mm 2 mps 746 mmHg 90%
    17:00 -2°C° 0 mm 2 mps 746 mmHg 90%
    18:00 -2°C° 0 mm 2 mps 746 mmHg 90%
    19:00 -2°C° 0 mm 2 mps 746 mmHg 90%
    20:00 -3°C° 0 mm 2 mps 746 mmHg 90%
    21:00 -3°C° 0 mm 2 mps 746 mmHg 90%
    22:00 -4°C° 0 mm 2 mps 746 mmHg 90%
    23:00 -4°C° 0 mm 2 mps 746 mmHg 89%

    Day after tomorrow, 17 December, Monday

    Time Temperature Precipitation Wind Pressure Humidity
    00:00 -4°C° 0 mm 2 mps 747 mmHg 89%
    01:00 -5°C° 0 mm 3 mps 747 mmHg 88%
    02:00 -5°C° 0 mm 3 mps 747 mmHg 87%
    03:00 -5°C° 0 mm 3 mps 746 mmHg 86%
    04:00 -5°C° 0 mm 3 mps 746 mmHg 86%
    05:00 -4°C° 0 mm 3 mps 747 mmHg 86%
    06:00 -3°C° 0 mm 2 mps 747 mmHg 86%
    07:00 -3°C° 0 mm 2 mps 747 mmHg 85%
    08:00 -3°C° 0 mm 2 mps 748 mmHg 85%
    09:00 -2°C° 0 mm 2 mps 748 mmHg 84%
    10:00 -2°C° 0 mm 2 mps 748 mmHg 83%
    11:00 -2°C° 0 mm 2 mps 748 mmHg 84%
    12:00 -1°C° 0 mm 2 mps 749 mmHg 84%
    13:00 -1°C° 0 mm 2 mps 749 mmHg 84%
    14:00 -1°C° 0 mm 2 mps 749 mmHg 86%
    15:00 -2°C° 0 mm 2 mps 749 mmHg 88%
    16:00 0°C° 0 mm 1 mps 750 mmHg 90%
    17:00 -3°C° 0 mm 2 mps 750 mmHg 90%
    18:00 -3°C° 0 mm 2 mps 751 mmHg 90%
    19:00 -3°C° 0 mm 2 mps 751 mmHg 91%
    20:00 -3°C° 0 mm 2 mps 751 mmHg 91%
    21:00 -3°C° 0 mm 2 mps 752 mmHg 91%
    22:00 -3°C° 0 mm 2 mps 752 mmHg 91%
    23:00 -3°C° 0 mm 2 mps 752 mmHg 91%

    18 December, Tuesday

    Time Temperature Precipitation Wind Pressure Humidity
    00:00 -3°C° 0 mm 2 mps 752 mmHg 91%
    01:00 -3°C° 0 mm 2 mps 752 mmHg 91%
    02:00 -3°C° 0 mm 2 mps 752 mmHg 90%
    03:00 -1°C° 0 mm 1 mps 752 mmHg 90%
    04:00 -1°C° 0 mm 1 mps 752 mmHg 90%
    05:00 -3°C° 0 mm 2 mps 752 mmHg 90%
    06:00 -3°C° 0 mm 2 mps 753 mmHg 90%
    07:00 -3°C° 0 mm 2 mps 753 mmHg 89%
    08:00 -2°C° 0 mm 2 mps 753 mmHg 88%
    09:00 -2°C° 0 mm 2 mps 753 mmHg 87%
    10:00 -1°C° 0 mm 2 mps 754 mmHg 86%
    11:00 -1°C° 0 mm 2 mps 753 mmHg 87%
    12:00 -1°C° 0 mm 2 mps 753 mmHg 87%
    13:00 +2°C° 0 mm 1 mps 753 mmHg 88%
    14:00 +1°C° 0 mm 1 mps 753 mmHg 88%
    15:00 +1°C° 0 mm 1 mps 753 mmHg 89%
    16:00 +1°C° 0 mm 1 mps 754 mmHg 89%
    17:00 0°C° 0 mm 1 mps 754 mmHg 90%
    18:00 0°C° 0 mm 1 mps 754 mmHg 91%
    19:00 -2°C° 0 mm 2 mps 754 mmHg 91%
    20:00 -2°C° 0 mm 2 mps 754 mmHg 92%
    21:00 -3°C° 0 mm 2 mps 754 mmHg 92%
    22:00 -3°C° 0 mm 2 mps 754 mmHg 93%
    23:00 -3°C° 0 mm 2 mps 754 mmHg 93%

    19 December, Wednesday

    Time Temperature Precipitation Wind Pressure Humidity
    00:00 -4°C° 0 mm 2 mps 754 mmHg 93%
    01:00 -4°C° 0 mm 2 mps 754 mmHg 93%
    02:00 -4°C° 0 mm 2 mps 754 mmHg 92%
    03:00 -5°C° 0 mm 3 mps 754 mmHg 92%
    04:00 -5°C° 0 mm 3 mps 754 mmHg 92%
    05:00 -5°C° 0 mm 3 mps 754 mmHg 92%
    06:00 -6°C° 0 mm 3 mps 754 mmHg 92%
    07:00 -6°C° 0 mm 3 mps 754 mmHg 92%
    08:00 -5°C° 0 mm 3 mps 754 mmHg 90%
    09:00 -5°C° 0 mm 4 mps 754 mmHg 88%
    10:00 -5°C° 0 mm 4 mps 754 mmHg 86%
    11:00 -4°C° 0 mm 4 mps 754 mmHg 85%
    12:00 -4°C° 0 mm 4 mps 754 mmHg 84%
    13:00 -4°C° 0 mm 4 mps 754 mmHg 83%
    14:00 -4°C° 0 mm 4 mps 754 mmHg 84%
    15:00 -4°C° 0 mm 4 mps 754 mmHg 85%
    16:00 -4°C° 0 mm 4 mps 753 mmHg 86%
    17:00 -5°C° 0 mm 4 mps 753 mmHg 87%
    18:00 -5°C° 0 mm 4 mps 753 mmHg 87%
    19:00 -5°C° 0 mm 4 mps 753 mmHg 87%
    20:00 -7°C° 0 mm 4 mps 753 mmHg 88%
    21:00 -7°C° 0 mm 4 mps 753 mmHg 88%
    22:00 -8°C° 0 mm 4 mps 753 mmHg 88%
    23:00 -8°C° 0 mm 4 mps 753 mmHg 88%

    20 December, Thursday

    Time Temperature Precipitation Wind Pressure Humidity
    00:00 -8°C° 0 mm 4 mps 753 mmHg 88%
    01:00 -8°C° 0 mm 4 mps 753 mmHg 88%
    02:00 -8°C° 0 mm 4 mps 753 mmHg 88%
    03:00 -9°C° 0 mm 4 mps 753 mmHg 89%
    04:00 -9°C° 0 mm 4 mps 752 mmHg 89%
    05:00 -9°C° 0 mm 4 mps 752 mmHg 89%
    06:00 -9°C° 0 mm 4 mps 753 mmHg 89%
    07:00 -9°C° 0 mm 4 mps 753 mmHg 89%
    08:00 -9°C° 0 mm 4 mps 753 mmHg 87%
    09:00 -9°C° 0 mm 4 mps 753 mmHg 86%
    10:00 -9°C° 0 mm 4 mps 753 mmHg 85%
    11:00 -8°C° 0 mm 4 mps 753 mmHg 84%
    12:00 -8°C° 0 mm 4 mps 753 mmHg 83%
    13:00 -7°C° 0 mm 4 mps 752 mmHg 83%
    14:00 -8°C° 0 mm 4 mps 752 mmHg 84%
    15:00 -8°C° 0 mm 4 mps 753 mmHg 86%
    16:00 -8°C° 0 mm 3 mps 753 mmHg 87%
    17:00 -8°C° 0 mm 3 mps 753 mmHg 88%
    18:00 -8°C° 0 mm 3 mps 753 mmHg 88%
    19:00 -9°C° 0 mm 4 mps 753 mmHg 89%
    20:00 -8°C° 0 mm 3 mps 753 mmHg 89%
    21:00 -9°C° 0 mm 3 mps 754 mmHg 89%
    22:00 -9°C° 0 mm 3 mps 754 mmHg 89%
    23:00 -9°C° 0 mm 3 mps 754 mmHg 89%
    Show more